Wind_Speed
19 21 22 22 24 24 25 25 27 26 25 26 26 27 27 27 28 27 27 28 28 29
22 23 24 26 26 25 28 26 27 28 28 27 27 27 27 30 30 28 29 30 30 30
23 24 25 27 28 29 32 31 32 31 29 29 29 29 29 31 31 30 30 30 31 30
24 25 26 26 29 30 30 31 33 32 33 33 33 32 32 32 33 33 34 34 34 34
25 27 28 29 31 31 31 32 32 33 33 34 34 34 33 34 34 35 35 34 34 35
27 28 30 32 31 30 33 33 34 33 33 34 35 35 34 35 36 35 36 36 36 37
26 27 31 33 33 32 31 33 34 34 34 35 36 36 37 36 37 38 38 39 39 39
27 29 30 32 31 31 31 32 34 33 33 34 35 35 34 35 36 36 37 38 40 42
25 28 29 30 31 32 33 33 32 32 33 35 37 36 37 39 40 39 38 38 38 37
24 26 31 32 33 33 33 32 33 33 33 36 39 37 38 40 41 40 39 36 38 37
24 30 33 32 32 32 32 33 33 34 35 36 39 39 40 41 42 39 39 39 40 40
28 31 31 31 31 35 32 34 35 32 36 37 41 41 41 42 39 36 37 41 42 41
31 31 32 34 33 32 34 33 33 36 37 37 40 41 40 41 36 35 37 36 35 36
32 32 31 34 35 32 32 33 32 34 36 37 34 39 40 38 39 35 37 34 35 33
Wind_Direction
341 336 330 327 323 319 313 311 313 310 306 303 300 299 297 292 288 286 282 278 274 271
337 334 330 326 322 317 314 310 307 305 303 301 299 295 292 285 285 283 280 277 276 271
332 332 327 324 320 317 317 314 311 306 303 301 298 294 290 284 283 282 279 277 275 271
331 328 324 318 318 317 313 309 305 304 303 300 296 293 289 285 284 280 277 275 272 270
329 328 325 321 321 319 308 307 305 302 299 295 293 292 288 285 282 278 276 274 272 271
331 328 326 323 318 312 310 308 304 300 297 296 294 291 288 283 281 278 276 273 270 267
328 324 322 318 313 308 308 304 302 300 297 294 293 291 288 286 281 275 271 268 265 264
327 323 317 309 309 308 306 303 302 302 298 297 294 291 291 287 282 277 272 268 263 259
323 316 308 311 312 311 310 309 305 302 301 299 294 296 299 297 292 287 283 280 275 270
317 313 318 317 314 313 311 309 306 304 303 297 295 301 302 302 301 293 288 288 287 282
321 322 319 316 313 312 312 309 306 306 303 300 299 304 306 304 301 294 289 288 284 279
329 319 315 312 313 316 312 308 308 308 305 303 301 306 310 307 303 299 292 288 283 279
331 321 316 318 317 315 308 306 310 309 306 305 302 307 313 316 312 303 300 301 295 294
335 329 325 323 320 311 311 311 312 308 307 307 310 313 317 319 320 315 311 312 306 300
Height
872 869 866 864 861 856 853 847 843 839 835 830 825 822 821 816 813 810 809 806 803 798
868 866 864 860 854 849 846 841 837 835 829 823 819 817 812 810 805 802 799 796 794 790
866 862 858 854 850 846 843 839 833 827 822 816 812 808 804 800 796 793 790 787 784 781
861 857 854 849 845 841 837 833 828 823 817 810 806 801 796 791 787 783 780 778 774 770
857 853 850 845 840 836 831 827 819 813 807 803 798 792 787 782 778 774 770 767 764 760
853 849 844 839 833 830 824 816 812 808 799 793 789 784 779 773 768 765 761 757 753 749
848 845 839 834 827 823 817 811 805 800 794 786 780 775 769 764 758 752 748 743 739 735
843 840 835 830 822 816 809 803 798 791 786 778 771 765 760 753 746 739 733 728 723 719
840 835 828 822 816 810 802 796 791 784 777 770 763 756 751 743 735 727 720 713 707 703
835 830 822 816 811 803 796 789 784 776 769 762 754 747 740 732 724 716 708 701 696 690
832 825 819 813 805 797 791 785 778 769 762 755 744 737 731 722 712 703 696 689 682 675
826 820 813 804 797 792 786 779 771 763 756 748 736 728 720 710 700 692 683 675 666 660
823 818 810 803 793 785 781 773 765 756 749 740 729 719 711 701 691 681 670 662 653 646
820 813 807 798 791 782 775 768 759 751 742 733 723 713 703 693 682 672 659 650 642 634